Regional Weather Roundup
Issued by NWS

Home | Current Version | Previous Version | Text Only | Print | Product List | Glossary Off
Versions: 1 2 3 4 5 6 7 8 9 10 11 12 13 14 15 16 17 18 19 20 21 22 23 24 25 26 27 28 29 30 31 32 33 34 35 36 37 38 39 40 41 42 43 44 45 46 47 48 49 50

000
ASUS43 KBIS 022002
RWRND

NORTH DAKOTA REGIONAL WEATHER ROUNDUP
NATIONAL WEATHER SERVICE BISMARCK ND
300 PM CDT TUE JUN 02 2015

NOTE: "FAIR" INDICATES FEW OR NO CLOUDS BELOW 12,000 FEET WITH NO
SIGNIFICANT WEATHER AND/OR OBSTRUCTIONS TO VISIBILITY.


NDZ001>003-009>011-017-022100-
NORTHWEST NORTH DAKOTA

CITY           SKY/WX    TMP DP  RH WIND       PRES   REMARKS
WILLISTON      LGT RAIN  58  55  90 NE7G20    29.77S
MINOT          CLOUDY    62  58  86 NE15      29.79S
MINOT AFB      CLOUDY    62  62 100 E16       29.79F
$$

NDZ018>021-031>035-040>046-022100-
SOUTHWEST NORTH DAKOTA

CITY           SKY/WX    TMP DP  RH WIND       PRES   REMARKS
BISMARCK       CLOUDY    74  65  73 NE7       29.74S
DICKINSON      PTSUNNY   77  61  57 W18       29.75S
GARRISON         N/A     72  61  68 NE9       29.77S
HETTINGER ARPT MOSUNNY   78  58  49 W17       29.79S
$$

NDZ004>008-012>016-024-026-027-054-022100-
NORTHEAST NORTH DAKOTA

CITY           SKY/WX    TMP DP  RH WIND       PRES   REMARKS
GRAND FORKS    CLOUDY    66  59  78 S5        29.80F
GRND FRKS AFB  CLOUDY    67  58  74 S9        29.80F
DEVILS LAKE    CLOUDY    66  57  72 NE14      29.79S
$$

NDZ022-023-025-028>030-036>039-047>053-022100-
SOUTHEAST NORTH DAKOTA

CITY           SKY/WX    TMP DP  RH WIND       PRES   REMARKS
FARGO          CLOUDY    74  61  63 S18       29.79F
JAMESTOWN      PTSUNNY   76  63  64 S12       29.75F
$$




USA.gov is the U.S. government's official web portal to all federal, state and local government web resources and services.